Clovis, NM

1:41 PM MDT on July 26, 2017 (GMT -0600)
Clovis Municipal

Weather History for KCVN - October, 2013

Change the Weather History Date:

Wednesday, October 23, 2013

  Actual Average Record
Temperature  
Mean Temperature 57 °F -  
Max Temperature 75 °F 68 °F 87 °F (2003)
Min Temperature 39 °F 41 °F 24 °F (1929)
Degree Days  
Heating Degree Days 8    
Growing Degree Days 7 (Base 50)    
Moisture  
Dew Point 25 °F    
Average Humidity 35    
Maximum Humidity 61    
Minimum Humidity 13    
Precipitation  
Precipitation 0.00 in - - ()
Sea Level Pressure  
Sea Level Pressure 30.18 in    
Wind  
Wind Speed 10 mph (WSW)    
Max Wind Speed 20 mph    
Max Gust Speed 29 mph    
Visibility 10 miles    
Events      
Averages and records for this station are not official NWS values.
T = Trace of Precipitation, MM = Missing Value Source: NWS Daily Summary

Daily Weather History Graph

Daily Weather History Graph

Search for Another Location

Airport or City:

Trip Planner

Search our weather history database for the weather conditions in past years. The results will help you decide how hot, cold, wet, or windy it might be!

Date:

Astronomy

Oct. 23, 2013 Rise Set
Actual Time 7:04 AM MDT 6:07 PM MDT
Civil Twilight 6:39 AM MDT 6:33 PM MDT
Nautical Twilight 6:09 AM MDT 7:02 PM MDT
Astronomical Twilight 5:40 AM MDT 7:32 PM MDT
Moon 9:47 PM MDT (10/23) 11:17 AM MDT (10/23)
Length of Visible Light 11h 54m
Length of Day
11h 03m
Waning Gibbous, 79% of the Moon is Illuminated
Oct 23
Waning Gibbous
Oct 26
Last Quarter
Nov 3
New
Nov 9
First Quarter
Nov 17
Full

Hourly Weather History & Observations

Time (MDT) Temp. Windchill Dew Point Humidity Pressure Visibility Wind Dir Wind Speed Gust Speed Precip Events Conditions
12:15 AM 44.6 °F 39.7 °F 26.6 °F 49% 30.20 in 10.0 mi West 9.2 mph - N/A   Clear
12:35 AM 44.6 °F 39.2 °F 26.6 °F 49% 30.20 in 10.0 mi West 10.4 mph - N/A   Clear
12:55 AM 44.6 °F 39.7 °F 26.6 °F 49% 30.20 in 10.0 mi West 9.2 mph - N/A   Clear
1:15 AM 44.6 °F 40.2 °F 26.6 °F 49% 30.20 in 10.0 mi West 8.1 mph - N/A   Clear
1:35 AM 44.6 °F 40.2 °F 26.6 °F 49% 30.20 in 10.0 mi West 8.1 mph - N/A   Clear
1:55 AM 42.8 °F 37.5 °F 26.6 °F 53% 30.19 in 10.0 mi West 9.2 mph - N/A   Clear
2:15 AM 42.8 °F 38.0 °F 26.6 °F 53% 30.19 in 10.0 mi West 8.1 mph - N/A   Clear
2:35 AM 42.8 °F 38.0 °F 26.6 °F 53% 30.19 in 10.0 mi West 8.1 mph - N/A   Clear
2:55 AM 42.8 °F 37.0 °F 26.6 °F 53% 30.18 in 10.0 mi West 10.4 mph - N/A   Clear
3:15 AM 42.8 °F 37.5 °F 26.6 °F 53% 30.18 in 10.0 mi West 9.2 mph - N/A   Clear
3:35 AM 42.8 °F 37.5 °F 26.6 °F 53% 30.18 in 10.0 mi West 9.2 mph - N/A   Clear
3:55 AM 41.0 °F 35.8 °F 24.8 °F 53% 30.18 in 10.0 mi West 8.1 mph - N/A   Clear
4:15 AM 42.8 °F 37.5 °F 26.6 °F 53% 30.18 in 10.0 mi West 9.2 mph - N/A   Clear
4:35 AM 42.8 °F 38.0 °F 26.6 °F 53% 30.18 in 10.0 mi West 8.1 mph - N/A   Clear
4:55 AM 41.0 °F 36.4 °F 24.8 °F 53% 30.18 in 10.0 mi West 6.9 mph - N/A   Clear
5:15 AM 39.2 °F 34.2 °F 26.6 °F 61% 30.19 in 10.0 mi WNW 6.9 mph - N/A   Clear
5:35 AM 39.2 °F 34.2 °F 26.6 °F 61% 30.19 in 10.0 mi West 6.9 mph - N/A   Clear
5:55 AM 39.2 °F 33.0 °F 26.6 °F 61% 30.19 in 10.0 mi West 9.2 mph - N/A   Clear
6:15 AM 39.2 °F 34.2 °F 26.6 °F 61% 30.19 in 10.0 mi WNW 6.9 mph - N/A   Clear
6:35 AM 39.2 °F 35.0 °F 26.6 °F 61% 30.20 in 10.0 mi WNW 5.8 mph - N/A   Clear
6:55 AM 39.2 °F 35.0 °F 26.6 °F 61% 30.21 in 10.0 mi NW 5.8 mph - N/A   Clear
7:15 AM 39.2 °F 35.0 °F 26.6 °F 61% 30.21 in 10.0 mi WNW 5.8 mph - N/A   Clear
7:35 AM 39.2 °F 35.0 °F 26.6 °F 61% 30.21 in 10.0 mi West 5.8 mph - N/A   Clear
7:55 AM 42.8 °F 38.6 °F 28.4 °F 57% 30.21 in 10.0 mi West 6.9 mph - N/A   Clear
8:15 AM 46.4 °F 42.4 °F 30.2 °F 53% 30.22 in 10.0 mi West 8.1 mph - N/A   Clear
8:35 AM 51.8 °F - 32.0 °F 47% 30.23 in 10.0 mi West 10.4 mph - N/A   Clear
8:55 AM 55.4 °F - 33.8 °F 44% 30.23 in 10.0 mi West 12.7 mph - N/A   Clear
9:15 AM 59.0 °F - 32.0 °F 36% 30.23 in 10.0 mi WSW 13.8 mph - N/A   Clear
9:35 AM 60.8 °F - 33.8 °F 36% 30.23 in 10.0 mi WSW 15.0 mph - N/A   Clear
9:55 AM 62.6 °F - 33.8 °F 34% 30.23 in 10.0 mi WSW 13.8 mph - N/A   Clear
10:15 AM 64.4 °F - 33.8 °F 32% 30.23 in 10.0 mi SW 15.0 mph - N/A   Clear
10:35 AM 64.4 °F - 33.8 °F 32% 30.22 in 10.0 mi SW 15.0 mph 18.4 mph N/A   Clear
10:55 AM 66.2 °F - 35.6 °F 32% 30.22 in 10.0 mi WSW 15.0 mph - N/A   Clear
11:15 AM 69.8 °F - 33.8 °F 27% 30.22 in 10.0 mi SW 13.8 mph 23.0 mph N/A   Clear
11:35 AM 69.8 °F - 32.0 °F 25% 30.21 in 10.0 mi SW 19.6 mph 23.0 mph N/A   Clear
11:55 AM 71.6 °F - 28.4 °F 20% 30.20 in 10.0 mi SW 17.3 mph 26.5 mph N/A   Clear
12:15 PM 73.4 °F - 26.6 °F 18% 30.19 in 10.0 mi SW 19.6 mph 28.8 mph N/A   Clear
12:35 PM 73.4 °F - 26.6 °F 18% 30.19 in 10.0 mi SW 16.1 mph 21.9 mph N/A   Clear
12:55 PM 73.4 °F - 24.8 °F 16% 30.17 in 10.0 mi WSW 18.4 mph 24.2 mph N/A   Clear
1:15 PM 75.2 °F - 24.8 °F 15% 30.16 in 10.0 mi SW 16.1 mph 20.7 mph N/A   Clear
1:35 PM 75.2 °F - 24.8 °F 15% 30.15 in 10.0 mi SW 18.4 mph - N/A   Clear
1:55 PM 75.2 °F - 24.8 °F 15% 30.14 in 10.0 mi SW 17.3 mph 23.0 mph N/A   Clear
2:15 PM 75.2 °F - 24.8 °F 15% 30.13 in 10.0 mi SW 15.0 mph 23.0 mph N/A   Clear
2:35 PM 75.2 °F - 23.0 °F 14% 30.13 in 10.0 mi SW 15.0 mph - N/A   Clear
2:55 PM 75.2 °F - 23.0 °F 14% 30.13 in 10.0 mi SW 15.0 mph 19.6 mph N/A   Clear
3:15 PM 75.2 °F - 21.2 °F 13% 30.12 in 10.0 mi WSW 15.0 mph 19.6 mph N/A   Clear
3:35 PM 75.2 °F - 21.2 °F 13% 30.12 in 10.0 mi SW 15.0 mph - N/A   Clear
3:55 PM 75.2 °F - 21.2 °F 13% 30.12 in 10.0 mi SW 11.5 mph - N/A   Clear
4:15 PM 75.2 °F - 21.2 °F 13% 30.12 in 10.0 mi SW 12.7 mph - N/A   Clear
4:35 PM 75.2 °F - 21.2 °F 13% 30.12 in 10.0 mi SW 12.7 mph 17.3 mph N/A   Clear
4:55 PM 73.4 °F - 21.2 °F 14% 30.12 in 10.0 mi SW 12.7 mph - N/A   Clear
5:15 PM 73.4 °F - 21.2 °F 14% 30.12 in 10.0 mi SW 10.4 mph - N/A   Clear
5:35 PM 71.6 °F - 23.0 °F 16% 30.12 in 10.0 mi SW 8.1 mph - N/A   Clear
5:55 PM 66.2 °F - 21.2 °F 18% 30.12 in 7.0 mi SW 6.9 mph - N/A   Clear
6:15 PM 64.4 °F - 23.0 °F 21% 30.12 in 10.0 mi SW 8.1 mph - N/A   Clear
6:35 PM 60.8 °F - 23.0 °F 23% 30.13 in 10.0 mi SW 5.8 mph - N/A   Clear
6:55 PM 60.8 °F - 21.2 °F 22% 30.13 in 10.0 mi SW 5.8 mph - N/A   Clear
7:15 PM 60.8 °F - 21.2 °F 22% 30.14 in 10.0 mi WSW 3.5 mph - N/A   Clear
7:35 PM 57.2 °F - 21.2 °F 25% 30.15 in 10.0 mi SW 4.6 mph - N/A   Clear
7:55 PM 57.2 °F - 23.0 °F 27% 30.15 in 10.0 mi WSW 4.6 mph - N/A   Clear
8:15 PM 55.4 °F - 21.2 °F 26% 30.16 in 10.0 mi WSW 4.6 mph - N/A   Clear
8:35 PM 55.4 °F - 26.6 °F 33% 30.16 in 10.0 mi West 3.5 mph - N/A   Clear
8:55 PM 53.6 °F - 24.8 °F 33% 30.17 in 10.0 mi WSW 4.6 mph - N/A   Clear
9:15 PM 51.8 °F - 21.2 °F 30% 30.17 in 10.0 mi WSW 4.6 mph - N/A   Clear
9:35 PM 48.2 °F - 21.2 °F 34% 30.17 in 10.0 mi South 5.8 mph - N/A   Clear
9:55 PM 50.0 °F - 21.2 °F 32% 30.18 in 10.0 mi Calm Calm - N/A   Clear
10:15 PM 48.2 °F - 19.4 °F 32% 30.18 in 10.0 mi SW 3.5 mph - N/A   Clear
10:35 PM 46.4 °F 45.2 °F 19.4 °F 34% 30.19 in 10.0 mi SW 3.5 mph - N/A   Clear
10:55 PM 48.2 °F - 21.2 °F 34% 30.19 in 10.0 mi SW 5.8 mph - N/A   Clear
11:15 PM 48.2 °F - 19.4 °F 32% 30.19 in 10.0 mi SSW 3.5 mph - N/A   Clear
11:35 PM 48.2 °F - 19.4 °F 32% 30.19 in 10.0 mi WSW 3.5 mph - N/A   Clear
11:55 PM 48.2 °F - 19.4 °F 32% 30.19 in 10.0 mi WSW 3.5 mph - N/A   Clear